{"data":{"norad_id":65316,"intl_designator":"2025-188B","name":"PELICAN-4","alt_names":[],"object_type":"PAYLOAD","status":"ACTIVE","operator":null,"country":"US","launch_date":"2025-08-26","launch_site_code":"AFWTR","launch_vehicle":null,"mission":null,"orbit_class":"UNKNOWN","rcs_meters":null,"size_class":null,"mass_kg":null,"dimensions":null,"purposes":["earth_obs"],"wikipedia_slug":null,"has_3d_model":false,"image_url":null,"decayed_at":null,"tle_current":{"epoch":"2026-09-19T10:22:23.531520Z","epoch_age_seconds":107015,"freshness":"FRESH","line1":"1 65316U 25188B   26262.43221680  .00005764  00000+0  14157-3 0  9991","line2":"2 65316  97.1933 337.2905 0002578 107.9463 252.2065 15.41052017 59828","mean_motion":15.41052017,"eccentricity":0.0002578,"inclination_deg":97.1933,"raan_deg":337.2905,"arg_perigee_deg":107.9463,"mean_anomaly_deg":252.2065,"bstar":0.00014157,"rev_number":5982,"period_min":93.442660216187,"perigee_km":441.24470739661,"apogee_km":444.76168728235,"semimajor_km":6821.1401973395,"source":"CELESTRAK","updated_at":"2026-09-20T09:00:34.724650Z"}}}